When you browse on this site, cookies collect data to enhance your experience and personalize the content and advertising you see.
Visit our Privacy Policy to learn more. By continuing to use the site, you agree to this use of cookies and data.
  • In Switzerland
  • List of Countries
  • For 7 days
  • Water Temperature
  • Satellite Maps
  • Weather Map
  • Weather Widgets
  • user-avatar
    Login

    Hourly Weather Tovchenykove

    Today, 17 July, Wednesday

    Time Temperature Precipitation Wind Pressure Humidity
    00:00 +15°C° 0 mm 1 mps 738 mmHg 89%
    01:00 +14°C° 0 mm 1 mps 738 mmHg 89%
    02:00 +14°C° 0 mm 1 mps 738 mmHg 89%
    03:00 +14°C° 0 mm 1 mps 738 mmHg 89%
    04:00 +14°C° 0 mm 1 mps 738 mmHg 89%
    05:00 +14°C° 0 mm 1 mps 738 mmHg 89%
    06:00 +16°C° 0 mm 1 mps 738 mmHg 84%
    07:00 +19°C° 0 mm 1 mps 738 mmHg 79%
    08:00 +20°C° 0 mm 1 mps 738 mmHg 74%
    09:00 +20°C° 0.3 mm 2 mps 738 mmHg 71%
    10:00 +21°C° 0.3 mm 2 mps 737 mmHg 67%
    11:00 +21°C° 0.3 mm 3 mps 737 mmHg 64%
    12:00 +21°C° 0.5 mm 4 mps 737 mmHg 66%
    13:00 +21°C° 0.5 mm 4 mps 737 mmHg 68%
    14:00 +21°C° 0.5 mm 5 mps 737 mmHg 69%
    15:00 +21°C° 0 mm 5 mps 737 mmHg 69%
    16:00 +21°C° 0 mm 4 mps 737 mmHg 69%
    17:00 +20°C° 0 mm 4 mps 737 mmHg 69%
    18:00 +19°C° 0.1 mm 3 mps 737 mmHg 75%
    19:00 +17°C° 0.1 mm 3 mps 737 mmHg 82%
    20:00 +16°C° 0.1 mm 2 mps 737 mmHg 88%
    21:00 +15°C° 0.1 mm 2 mps 737 mmHg 89%
    22:00 +15°C° 0.1 mm 2 mps 737 mmHg 90%
    23:00 +14°C° 0.1 mm 2 mps 737 mmHg 91%

    Tomorrow, 18 July, Thursday

    Time Temperature Precipitation Wind Pressure Humidity
    00:00 +14°C° 0 mm 2 mps 737 mmHg 92%
    01:00 +13°C° 0 mm 2 mps 737 mmHg 92%
    02:00 +13°C° 0 mm 2 mps 737 mmHg 92%
    03:00 +13°C° 0 mm 2 mps 737 mmHg 93%
    04:00 +13°C° 0 mm 2 mps 737 mmHg 94%
    05:00 +13°C° 0 mm 2 mps 737 mmHg 94%
    06:00 +13°C° 0 mm 3 mps 738 mmHg 90%
    07:00 +14°C° 0 mm 3 mps 738 mmHg 85%
    08:00 +17°C° 0 mm 4 mps 738 mmHg 80%
    09:00 +18°C° 0 mm 4 mps 738 mmHg 75%
    10:00 +19°C° 0 mm 5 mps 738 mmHg 69%
    11:00 +20°C° 0 mm 5 mps 738 mmHg 63%
    12:00 +20°C° 0.3 mm 5 mps 738 mmHg 64%
    13:00 +20°C° 0.3 mm 5 mps 738 mmHg 65%
    14:00 +21°C° 0.3 mm 6 mps 738 mmHg 66%
    15:00 +20°C° 0.4 mm 5 mps 739 mmHg 70%
    16:00 +20°C° 0.4 mm 5 mps 739 mmHg 74%
    17:00 +20°C° 0.4 mm 5 mps 739 mmHg 77%
    18:00 +18°C° 0.1 mm 4 mps 739 mmHg 82%
    19:00 +17°C° 0.1 mm 4 mps 739 mmHg 87%
    20:00 +16°C° 0.1 mm 3 mps 740 mmHg 92%
    21:00 +14°C° 0 mm 3 mps 740 mmHg 93%
    22:00 +14°C° 0 mm 3 mps 740 mmHg 94%
    23:00 +13°C° 0 mm 3 mps 740 mmHg 95%

    Day after tomorrow, 19 July, Friday

    Time Temperature Precipitation Wind Pressure Humidity
    00:00 +13°C° 0 mm 3 mps 740 mmHg 95%
    01:00 +13°C° 0 mm 3 mps 741 mmHg 95%
    02:00 +12°C° 0 mm 3 mps 741 mmHg 96%
    03:00 +12°C° 0 mm 3 mps 741 mmHg 96%
    04:00 +13°C° 0 mm 3 mps 741 mmHg 96%
    05:00 +13°C° 0 mm 3 mps 741 mmHg 97%
    06:00 +14°C° 0 mm 3 mps 741 mmHg 94%
    07:00 +15°C° 0 mm 4 mps 742 mmHg 91%
    08:00 +18°C° 0 mm 4 mps 742 mmHg 88%
    09:00 +19°C° 0 mm 4 mps 742 mmHg 82%
    10:00 +20°C° 0 mm 5 mps 742 mmHg 77%
    11:00 +22°C° 0 mm 5 mps 742 mmHg 71%
    12:00 +22°C° 0.2 mm 5 mps 743 mmHg 70%
    13:00 +23°C° 0.2 mm 5 mps 743 mmHg 68%
    14:00 +23°C° 0.2 mm 5 mps 743 mmHg 67%
    15:00 +23°C° 0.2 mm 5 mps 743 mmHg 68%
    16:00 +22°C° 0.2 mm 5 mps 743 mmHg 70%
    17:00 +22°C° 0.2 mm 4 mps 743 mmHg 71%
    18:00 +20°C° 0 mm 4 mps 743 mmHg 77%
    19:00 +19°C° 0 mm 3 mps 743 mmHg 83%
    20:00 +17°C° 0 mm 2 mps 744 mmHg 88%
    21:00 +17°C° 0 mm 2 mps 744 mmHg 89%
    22:00 +16°C° 0 mm 2 mps 744 mmHg 89%
    23:00 +16°C° 0 mm 2 mps 744 mmHg 89%

    20 July, Saturday

    Time Temperature Precipitation Wind Pressure Humidity
    00:00 +15°C° 0 mm 2 mps 744 mmHg 90%
    01:00 +15°C° 0 mm 2 mps 744 mmHg 91%
    02:00 +15°C° 0 mm 2 mps 744 mmHg 92%
    03:00 +15°C° 0 mm 2 mps 745 mmHg 90%
    04:00 +15°C° 0 mm 2 mps 745 mmHg 89%
    05:00 +15°C° 0 mm 2 mps 745 mmHg 88%
    06:00 +17°C° 0 mm 2 mps 745 mmHg 84%
    07:00 +19°C° 0 mm 2 mps 746 mmHg 79%
    08:00 +21°C° 0 mm 3 mps 746 mmHg 75%
    09:00 +22°C° 0.2 mm 3 mps 746 mmHg 71%
    10:00 +23°C° 0.2 mm 4 mps 746 mmHg 67%
    11:00 +25°C° 0.2 mm 4 mps 746 mmHg 64%
    12:00 +25°C° 0.3 mm 4 mps 746 mmHg 62%
    13:00 +26°C° 0.3 mm 4 mps 746 mmHg 61%
    14:00 +26°C° 0.3 mm 3 mps 746 mmHg 60%
    15:00 +26°C° 0.1 mm 3 mps 746 mmHg 62%
    16:00 +25°C° 0.1 mm 3 mps 746 mmHg 65%
    17:00 +25°C° 0.1 mm 2 mps 746 mmHg 68%
    18:00 +23°C° 0 mm 2 mps 746 mmHg 72%
    19:00 +22°C° 0 mm 1 mps 746 mmHg 77%
    20:00 +20°C° 0 mm 1 mps 746 mmHg 81%
    21:00 +19°C° 0 mm 1 mps 746 mmHg 82%
    22:00 +19°C° 0 mm 1 mps 747 mmHg 83%
    23:00 +16°C° 0 mm 0 mps 747 mmHg 84%

    21 July, Sunday

    Time Temperature Precipitation Wind Pressure Humidity
    00:00 +18°C° 0 mm 1 mps 747 mmHg 85%
    01:00 +16°C° 0 mm 1 mps 747 mmHg 85%
    02:00 +16°C° 0 mm 1 mps 746 mmHg 86%
    03:00 +16°C° 0 mm 1 mps 746 mmHg 86%
    04:00 +18°C° 0 mm 1 mps 746 mmHg 85%
    05:00 +18°C° 0 mm 1 mps 746 mmHg 85%
    06:00 +19°C° 0 mm 1 mps 747 mmHg 80%
    07:00 +21°C° 0 mm 1 mps 747 mmHg 76%
    08:00 +23°C° 0 mm 1 mps 747 mmHg 71%
    09:00 +24°C° 0.4 mm 1 mps 747 mmHg 67%
    10:00 +25°C° 0.4 mm 1 mps 747 mmHg 62%
    11:00 +26°C° 0.4 mm 2 mps 747 mmHg 57%
    12:00 +26°C° 0.1 mm 2 mps 747 mmHg 55%
    13:00 +27°C° 0.1 mm 2 mps 747 mmHg 54%
    14:00 +27°C° 0.1 mm 2 mps 746 mmHg 52%
    15:00 +27°C° 0 mm 2 mps 746 mmHg 56%
    16:00 +27°C° 0 mm 2 mps 746 mmHg 60%
    17:00 +26°C° 0 mm 2 mps 746 mmHg 64%
    18:00 +25°C° 0.1 mm 2 mps 746 mmHg 69%
    19:00 +23°C° 0.1 mm 1 mps 746 mmHg 74%
    20:00 +21°C° 0.1 mm 1 mps 747 mmHg 79%
    21:00 +20°C° 0 mm 1 mps 747 mmHg 81%
    22:00 +20°C° 0 mm 1 mps 747 mmHg 83%
    23:00 +17°C° 0 mm 0 mps 747 mmHg 84%

    22 July, Monday

    Time Temperature Precipitation Wind Pressure Humidity
    00:00 +17°C° 0 mm 0 mps 747 mmHg 85%
    01:00 +16°C° 0 mm 0 mps 747 mmHg 86%
    02:00 +16°C° 0 mm 0 mps 747 mmHg 86%
    03:00 +16°C° 0 mm 0 mps 747 mmHg 86%
    04:00 +17°C° 0 mm 0 mps 747 mmHg 86%
    05:00 +17°C° 0 mm 0 mps 747 mmHg 86%
    06:00 +18°C° 0 mm 0 mps 747 mmHg 81%
    07:00 +20°C° 0 mm 0 mps 747 mmHg 77%
    08:00 +21°C° 0 mm 0 mps 747 mmHg 72%
    09:00 +22°C° 0.1 mm 0 mps 747 mmHg 68%
    10:00 +24°C° 0.1 mm 0 mps 747 mmHg 63%
    11:00 +25°C° 0.1 mm 0 mps 747 mmHg 59%
    12:00 +25°C° 0.2 mm 0 mps 747 mmHg 59%
    13:00 +25°C° 0.2 mm 0 mps 746 mmHg 59%
    14:00 +25°C° 0.2 mm 0 mps 746 mmHg 60%
    15:00 +24°C° 0.1 mm 0 mps 746 mmHg 63%
    16:00 +26°C° 0.1 mm 1 mps 746 mmHg 66%
    17:00 +25°C° 0.1 mm 1 mps 746 mmHg 69%
    18:00 +24°C° 0.2 mm 1 mps 745 mmHg 71%
    19:00 +23°C° 0.2 mm 1 mps 745 mmHg 74%
    20:00 +22°C° 0.2 mm 1 mps 745 mmHg 76%
    21:00 +21°C° 0.4 mm 2 mps 745 mmHg 80%
    22:00 +20°C° 0.4 mm 2 mps 745 mmHg 84%
    23:00 +20°C° 0.4 mm 3 mps 745 mmHg 88%
    Show more